Albuquerque, NM

11:24 AM MDT on October 20, 2017 (GMT -0600)
Albuquerque International Sunport

Weather History for KABQ - September, 2013

Change the Weather History Date:

Sunday, September 22, 2013

  Actual Average Record
Temperature  
Mean Temperature 70 °F 67 °F  
Max Temperature 81 °F 79 °F 90 °F (1944)
Min Temperature 58 °F 56 °F 26 °F (1912)
Degree Days  
Heating Degree Days 0 1  
Month to date heating degree days 0 8  
Since 1 July heating degree days 0 8  
Cooling Degree Days 5 3  
Month to date cooling degree days 181 138  
Year to date cooling degree days 1556 1295  
Growing Degree Days 20 (Base 50)    
Moisture  
Dew Point 51 °F    
Average Humidity 52    
Maximum Humidity 75    
Minimum Humidity 28    
Precipitation  
Precipitation 0.58 in 0.03 in 1.77 in (2010)
Month to date precipitation 3.97 0.78  
Year to date precipitation 7.86 7.06  
Snow  
Snow 0.00 in - - ()
Month to date snowfall 0.0  
Since 1 July snowfall 0.0  
Since 1 September snowfall 0.0  
Snow Depth 0.00 in    
Sea Level Pressure  
Sea Level Pressure 29.73 in    
Wind  
Wind Speed 14 mph (South)    
Max Wind Speed 37 mph    
Max Gust Speed 46 mph    
Visibility 9 miles    
Events Rain , Thunderstorm    
T = Trace of Precipitation, MM = Missing Value Source: NWS Daily Summary

Daily Weather History Graph

Daily Weather History Graph

Search for Another Location

Airport or City:

Trip Planner

Search our weather history database for the weather conditions in past years. The results will help you decide how hot, cold, wet, or windy it might be!

Date:

Astronomy

Sep. 22, 2013 Rise Set
Actual Time 6:54 AM MDT 7:02 PM MDT
Civil Twilight 6:29 AM MDT 7:28 PM MDT
Nautical Twilight 5:59 AM MDT 7:57 PM MDT
Astronomical Twilight 5:29 AM MDT 8:27 PM MDT
Moon 9:04 PM MDT (9/22) 10:08 AM MDT (9/22)
Length of Visible Light 12h 58m
Length of Day
12h 08m
Waning Gibbous, 88% of the Moon is Illuminated
Sep 22
Waning Gibbous
Sep 26
Last Quarter
Oct 4
New
Oct 11
First Quarter
Oct 18
Full

Hourly Weather History & Observations

Time (MDT) Temp. Dew Point Humidity Pressure Visibility Wind Dir Wind Speed Gust Speed Precip Events Conditions
12:52 AM 64.9 °F 51.1 °F 61% 29.81 in 10.0 mi ESE 8.1 mph - N/A   Partly Cloudy
1:52 AM 63.0 °F 51.1 °F 65% 29.81 in 10.0 mi ESE 8.1 mph - N/A   Clear
2:52 AM 63.0 °F 50.0 °F 63% 29.79 in 10.0 mi ESE 6.9 mph - N/A   Clear
3:52 AM 62.1 °F 51.1 °F 67% 29.77 in 10.0 mi SSE 5.8 mph - N/A   Clear
4:52 AM 61.0 °F 51.1 °F 70% 29.77 in 10.0 mi SSE 4.6 mph - N/A   Clear
5:52 AM 60.1 °F 51.1 °F 72% 29.77 in 10.0 mi SE 5.8 mph - N/A   Partly Cloudy
6:52 AM 59.0 °F 51.1 °F 75% 29.79 in 10.0 mi SE 6.9 mph - N/A   Scattered Clouds
7:52 AM 61.0 °F 51.1 °F 70% 29.80 in 10.0 mi SE 3.5 mph - N/A   Scattered Clouds
8:52 AM 64.0 °F 52.0 °F 65% 29.81 in 10.0 mi SSW 5.8 mph - N/A   Scattered Clouds
9:52 AM 68.0 °F 51.1 °F 55% 29.78 in 10.0 mi South 19.6 mph 27.6 mph N/A   Scattered Clouds
10:52 AM 71.1 °F 50.0 °F 47% 29.76 in 10.0 mi South 18.4 mph 24.2 mph N/A   Scattered Clouds
11:52 AM 73.9 °F 48.0 °F 40% 29.73 in 10.0 mi South 16.1 mph 25.3 mph N/A   Scattered Clouds
12:52 PM 75.9 °F 48.0 °F 37% 29.67 in 10.0 mi SSW 12.7 mph 21.9 mph N/A   Scattered Clouds
1:52 PM 78.1 °F 46.9 °F 33% 29.62 in 10.0 mi SSW 18.4 mph 27.6 mph N/A   Scattered Clouds
2:52 PM 80.1 °F 48.0 °F 32% 29.57 in 10.0 mi South 29.9 mph 35.7 mph N/A   Scattered Clouds
3:52 PM 80.1 °F 45.0 °F 29% 29.53 in 10.0 mi South 32.2 mph 38.0 mph N/A   Scattered Clouds
4:52 PM 79.0 °F 46.0 °F 31% 29.52 in 10.0 mi South 34.5 mph 46.0 mph N/A   Widespread Dust
5:52 PM 75.9 °F 48.0 °F 37% 29.54 in 10.0 mi South 27.6 mph 40.3 mph N/A Thunderstorm Thunderstorm
6:08 PM 69.8 °F 53.6 °F 56% 29.81 in 4.0 mi SW 27.6 mph 38.0 mph 0.01 in Rain , Thunderstorm Light Thunderstorms and Rain
6:11 PM 64.4 °F 51.8 °F 64% 29.83 in 1.0 mi SSW 29.9 mph 40.3 mph 0.01 in Rain , Thunderstorm Heavy Thunderstorms and Rain
6:24 PM 60.8 °F 53.6 °F 77% 29.79 in 7.0 mi SE 17.3 mph 25.3 mph 0.20 in Rain , Thunderstorm Light Thunderstorms and Rain
6:52 PM 62.1 °F 54.0 °F 75% 29.62 in 10.0 mi South 6.9 mph - 0.20 in Thunderstorm Thunderstorm
7:04 PM 60.8 °F 55.4 °F 82% 29.80 in 10.0 mi ESE 11.5 mph - 0.00 in Rain Light Rain
7:11 PM 60.8 °F 55.4 °F 82% 29.80 in 10.0 mi SE 12.7 mph - 0.00 in Rain , Thunderstorm Light Thunderstorms and Rain
7:21 PM 62.6 °F 53.6 °F 72% 29.80 in 10.0 mi SSE 16.1 mph 24.2 mph 0.02 in Rain , Thunderstorm Thunderstorms and Rain
7:52 PM 60.1 °F 55.0 °F 83% 29.60 in 10.0 mi SE 11.5 mph - 0.04 in Thunderstorm Thunderstorm
8:04 PM 60.8 °F 55.4 °F 82% 29.78 in 10.0 mi SE 10.4 mph - N/A   Scattered Clouds
8:17 PM 60.8 °F 55.4 °F 82% 29.76 in 10.0 mi ESE 9.2 mph - 0.00 in Rain , Thunderstorm Light Thunderstorms and Rain
8:39 PM 60.8 °F 55.4 °F 82% 29.84 in 1.8 mi West 24.2 mph 34.5 mph 0.12 in Rain , Thunderstorm Heavy Thunderstorms and Rain
8:43 PM 59.0 °F 55.4 °F 88% 29.84 in 3.0 mi West 19.6 mph 34.5 mph 0.25 in Rain , Thunderstorm Heavy Thunderstorms and Rain
8:52 PM 60.1 °F 53.1 °F 78% 29.65 in 3.0 mi WSW 15.0 mph 28.8 mph 0.33 in Rain , Thunderstorm Thunderstorms and Rain
9:40 PM 60.8 °F 53.6 °F 77% 29.85 in 10.0 mi WNW 11.5 mph - 0.01 in   Overcast
9:52 PM 61.0 °F 55.0 °F 81% 29.66 in 10.0 mi WNW 8.1 mph - 0.01 in   Mostly Cloudy
10:52 PM 62.1 °F 51.1 °F 67% 29.67 in 10.0 mi WNW 13.8 mph - N/A   Scattered Clouds
11:52 PM 62.1 °F 37.0 °F 39% 29.69 in 10.0 mi West 18.4 mph - N/A   Scattered Clouds